Погода в Кайчаке

Россия / Кемеровская область (Кузбасс)     55°44′08″N   88°33′31″E
темп.,
°C
ветер,
м/с
пор.,
м/с
влажн.,
%
обл.,
%
осадки,
мм/ч
давл.,
гПа
погр.,
м
20 сентября, пн
пн2001:00+8зюз376163 0.0 1004164
04:00+7зюз488284 0.2 1005539
07:00+5зюз3777100 0.3 1007400
10:00+7зюз796965 0.1 10081067
13:00+5зюз7118564 1.1 10111015
16:00+7зюз7126499 0.5 10111580
19:00+4юз61283100 0.8 1012949
22:00+3юз61291100 0.1 1012823
21 сентября, вт
вт2101:00+2зюз51091100 0.6 1012755
04:00+2зюз51092100 0.1 1012757
07:00+2зюз3999100 0.6 1012531
10:00+3зюз61182100 0.4 10131136
13:00+4зюз71072100 0.7 10131261
16:00+4зюз81286100 0.3 10141007
19:00+2зюз61197100 0.9 1015524
22:00+2зюз51097100 0.4 1016584
22 сентября, ср
ср2201:00+2зюз51097100 0.8 1016649
04:00+1зюз5997100 0.2 1017600
07:00+1зюз4997100 0.4 1017667
10:00+2зюз4996100 0.5 1018586
13:00+3юз4795100 1.0 1018620
16:00+2зюз3897100 0.6 1018574
19:00+2юз3794100 0.9 1019462
22:00+1юз3794100 0.1 1019487
23 сентября, чт
чт2301:00+1зюз3799100 0.2 1019372
04:00+1з2499100 0.6 1019262
07:00+1зюз25100100 1.3 1020217
10:00+2з4688100 0.3 1021652
13:00+3з687999 0.8 10211096
16:00+3зсз5779100 0.5 1022947
19:00+1зсз4787100 0.9 1024300
22:00−1з239895 0.2 102680
24 сентября, пт
пт2401:000зюз2498100 0.4 1026244
04:00−2юз3795100 0.0 1026224
07:00−2зюз389597 0.0 1027281
10:00+1зюз588196 0.0 1027834
13:00+3зюз6870100 0.3 10271271
16:00+4зюз697099 0.1 10271231
19:00+1зюз61179100 0.2 1027696
22:00+1юз71483100 0.0 1027677